Ladysmith, WI

8:02 AM CDT on July 26, 2017 (GMT -0500)
Rusk County

Weather History for KRCX - March, 2014

Change the Weather History Date:

Sunday, March 23, 2014

  Actual Average (KPBH) Record (KPBH)
Temperature  
Mean Temperature 8 °F -  
Max Temperature 20 °F 38 °F 64 °F (2012)
Min Temperature -4 °F 19 °F -9 °F (2014)
Degree Days  
Heating Degree Days 57    
Moisture  
Dew Point -1 °F    
Average Humidity 65    
Maximum Humidity 87    
Minimum Humidity 43    
Precipitation  
Precipitation 0.00 in - - ()
Sea Level Pressure  
Sea Level Pressure 30.39 in    
Wind  
Wind Speed 6 mph (West)    
Max Wind Speed 13 mph    
Max Gust Speed 17 mph    
Visibility 10 miles    
Events      
Averages and records for this station are not official NWS values.
T = Trace of Precipitation, MM = Missing Value Source: NWS Daily Summary

Daily Weather History Graph

Daily Weather History Graph

Search for Another Location

Airport or City:

Trip Planner

Search our weather history database for the weather conditions in past years. The results will help you decide how hot, cold, wet, or windy it might be!

Date:

Astronomy

Mar. 23, 2014 Rise Set
Actual Time 7:01 AM CDT 7:20 PM CDT
Civil Twilight 6:31 AM CDT 7:50 PM CDT
Nautical Twilight 5:56 AM CDT 8:25 PM CDT
Astronomical Twilight 5:21 AM CDT 9:01 PM CDT
Moon 1:51 AM CDT (3/23) 11:28 AM CDT (3/23)
Length of Visible Light 13h 18m
Length of Day
12h 19m
Waning Gibbous, 54% of the Moon is Illuminated
Mar 23
Waning Gibbous
Mar 23
Last Quarter
Mar 30
New
Apr 7
First Quarter
Apr 15
Full

Hourly Weather History & Observations

Time (CDT) Temp. Windchill Dew Point Humidity Pressure Visibility Wind Dir Wind Speed Gust Speed Precip Events Conditions
12:15 AM 7.3 °F -4.1 °F -0.8 °F 69% 30.42 in 10.0 mi NW 6.9 mph - N/A   Clear
12:35 AM 7.7 °F -2.4 °F -0.9 °F 68% 30.42 in 10.0 mi NW 5.8 mph - N/A   Clear
12:55 AM 7.0 °F -3.3 °F -1.1 °F 69% 30.42 in 10.0 mi NW 5.8 mph - N/A   Clear
1:15 AM 6.4 °F -5.2 °F -1.7 °F 69% 30.43 in 10.0 mi WNW 6.9 mph - N/A   Clear
1:35 AM 5.9 °F -5.8 °F -1.5 °F 72% 30.43 in 10.0 mi WNW 6.9 mph - N/A   Clear
1:55 AM 5.4 °F -5.2 °F -1.8 °F 72% 30.43 in 10.0 mi WNW 5.8 mph - N/A   Clear
2:15 AM 6.3 °F -6.5 °F -1.1 °F 72% 30.43 in 10.0 mi NW 8.1 mph - N/A   Clear
2:35 AM 5.4 °F -5.2 °F -1.8 °F 72% 30.43 in 10.0 mi WNW 5.8 mph - N/A   Clear
2:55 AM 4.8 °F -5.8 °F -2.0 °F 73% 30.43 in 10.0 mi WNW 5.8 mph - N/A   Clear
3:15 AM 4.1 °F -6.7 °F -2.4 °F 75% 30.43 in 10.0 mi WNW 5.8 mph - N/A   Clear
3:35 AM 4.1 °F -6.7 °F -2.2 °F 75% 30.43 in 10.0 mi WNW 5.8 mph - N/A   Clear
3:55 AM 3.9 °F -6.9 °F -2.4 °F 75% 30.43 in 10.0 mi NW 5.8 mph - N/A   Clear
4:15 AM 3.6 °F -5.7 °F -2.6 °F 76% 30.43 in 10.0 mi NW 4.6 mph - N/A   Clear
4:35 AM 3.6 °F -3.8 °F -2.2 °F 77% 30.43 in 10.0 mi WNW 3.5 mph - N/A   Clear
4:55 AM 2.8 °F -4.6 °F -2.2 °F 79% 30.43 in 10.0 mi West 3.5 mph - N/A   Clear
5:15 AM 3.2 °F -4.2 °F -1.5 °F 81% 30.43 in 10.0 mi West 3.5 mph - N/A   Clear
5:35 AM 3.2 °F -4.2 °F -1.5 °F 81% 30.42 in 10.0 mi WNW 3.5 mph - N/A   Clear
5:55 AM -1.3 °F - -5.8 °F 81% 30.43 in 10.0 mi Calm Calm - N/A   Clear
6:15 AM -2.0 °F - -5.8 °F 84% 30.43 in 10.0 mi Calm Calm - N/A   Clear
6:35 AM -3.3 °F - -6.9 °F 85% 30.43 in 10.0 mi Calm Calm - N/A   Clear
6:55 AM -3.6 °F -12.0 °F -7.2 °F 85% 30.43 in 10.0 mi WSW 3.5 mph - N/A   Clear
7:15 AM -4.2 °F -12.6 °F -7.8 °F 84% 30.44 in 10.0 mi West 3.5 mph - N/A   Clear
7:35 AM -2.9 °F - -5.8 °F 87% 30.44 in 10.0 mi Calm Calm - N/A   Clear
7:55 AM -2.6 °F -10.8 °F -5.4 °F 87% 30.44 in 10.0 mi West 3.5 mph - N/A   Clear
8:15 AM -1.5 °F -9.5 °F -4.9 °F 85% 30.44 in 10.0 mi West 3.5 mph - N/A   Clear
8:35 AM 1.9 °F -10.6 °F -2.4 °F 82% 30.44 in 10.0 mi West 6.9 mph - N/A   Clear
8:55 AM 3.0 °F -9.3 °F -2.2 °F 79% 30.44 in 10.0 mi West 6.9 mph - N/A   Clear
9:15 AM 4.3 °F -7.8 °F -2.2 °F 75% 30.44 in 10.0 mi WNW 6.9 mph - N/A   Clear
9:35 AM 5.7 °F -6.1 °F -1.5 °F 72% 30.44 in 10.0 mi West 6.9 mph - N/A   Clear
9:55 AM 7.2 °F 0.3 °F -1.3 °F 68% 30.44 in 10.0 mi West 3.5 mph - N/A   Clear
10:15 AM 8.1 °F -0.5 °F -1.3 °F 66% 30.44 in 10.0 mi West 4.6 mph - N/A   Clear
10:35 AM 9.7 °F -0.1 °F -1.1 °F 62% 30.44 in 10.0 mi West 5.8 mph - N/A   Clear
10:55 AM 11.1 °F 1.7 °F -0.6 °F 59% 30.44 in 10.0 mi West 5.8 mph - N/A   Clear
11:15 AM 12.0 °F 1.5 °F -0.8 °F 57% 30.44 in 10.0 mi West 6.9 mph - N/A   Clear
11:35 AM 12.9 °F 1.6 °F -0.4 °F 55% 30.43 in 10.0 mi West 8.1 mph - N/A   Clear
11:55 AM 14.0 °F 6.5 °F -0.6 °F 52% 30.43 in 10.0 mi West 4.6 mph - N/A   Clear
12:15 PM 14.9 °F 4.0 °F -0.0 °F 52% 30.42 in 10.0 mi West 8.1 mph - N/A   Clear
12:35 PM 15.6 °F 5.9 °F -0.8 °F 49% 30.42 in 10.0 mi West 6.9 mph - N/A   Clear
12:55 PM 15.8 °F 7.2 °F -0.6 °F 49% 30.41 in 10.0 mi West 5.8 mph - N/A   Clear
1:15 PM 16.7 °F 8.3 °F -0.2 °F 47% 30.41 in 10.0 mi West 5.8 mph - N/A   Clear
1:35 PM 17.1 °F 8.7 °F -0.9 °F 45% 30.40 in 10.0 mi WNW 5.8 mph - N/A   Clear
1:55 PM 18.1 °F 5.6 °F -0.4 °F 44% 30.40 in 10.0 mi West 11.5 mph - N/A   Clear
2:15 PM 18.1 °F 7.9 °F -0.4 °F 44% 30.39 in 10.0 mi West 8.1 mph - N/A   Clear
2:35 PM 18.5 °F 7.5 °F 0.3 °F 45% 30.39 in 10.0 mi WSW 9.2 mph 16.1 mph N/A   Clear
2:55 PM 18.7 °F 5.7 °F 1.4 °F 47% 30.38 in 10.0 mi West 12.7 mph 17.3 mph N/A   Clear
3:15 PM 18.5 °F 6.8 °F -0.4 °F 44% 30.37 in 10.0 mi West 10.4 mph - N/A   Clear
3:35 PM 19.4 °F 8.6 °F 0.3 °F 43% 30.37 in 10.0 mi WSW 9.2 mph - N/A   Clear
3:55 PM 19.4 °F 9.5 °F 0.1 °F 43% 30.36 in 10.0 mi West 8.1 mph - N/A   Clear
4:15 PM 20.1 °F 8.1 °F 1.6 °F 45% 30.36 in 10.0 mi West 11.5 mph - N/A   Scattered Clouds
4:35 PM 19.9 °F 9.3 °F 1.6 °F 45% 30.36 in 10.0 mi West 9.2 mph - N/A   Clear
4:55 PM 19.9 °F 8.6 °F 1.4 °F 45% 30.35 in 10.0 mi West 10.4 mph - N/A   Clear
5:15 PM 20.1 °F 9.5 °F 1.9 °F 45% 30.35 in 10.0 mi West 9.2 mph - N/A   Scattered Clouds
5:35 PM 19.9 °F 9.3 °F 1.9 °F 46% 30.34 in 10.0 mi West 9.2 mph - N/A   Scattered Clouds
5:55 PM 19.4 °F 8.6 °F 3.0 °F 49% 30.34 in 10.0 mi West 9.2 mph - N/A   Scattered Clouds
6:15 PM 19.6 °F 9.7 °F 2.1 °F 47% 30.34 in 10.0 mi West 8.1 mph - N/A   Mostly Cloudy
6:35 PM 18.5 °F 7.5 °F 2.3 °F 49% 30.34 in 10.0 mi West 9.2 mph - N/A   Mostly Cloudy
6:55 PM 18.0 °F 8.7 °F 2.7 °F 51% 30.33 in 10.0 mi West 6.9 mph - N/A   Scattered Clouds
7:15 PM 17.1 °F 7.6 °F 2.7 °F 53% 30.33 in 10.0 mi WNW 6.9 mph - N/A   Clear
7:35 PM 15.8 °F 8.6 °F 2.1 °F 55% 30.32 in 10.0 mi WSW 4.6 mph - N/A   Clear
7:55 PM 15.1 °F 7.7 °F 2.1 °F 57% 30.32 in 10.0 mi West 4.6 mph - N/A   Clear
8:15 PM 14.9 °F 9.2 °F 2.1 °F 57% 30.32 in 10.0 mi WSW 3.5 mph - N/A   Clear
8:35 PM 13.1 °F 7.1 °F 1.8 °F 61% 30.33 in 10.0 mi West 3.5 mph - N/A   Clear
8:55 PM 10.4 °F 4.0 °F 0.5 °F 64% 30.33 in 10.0 mi West 3.5 mph - N/A   Clear
9:15 PM 10.4 °F - 1.0 °F 66% 30.32 in 10.0 mi Calm Calm - N/A   Clear
9:35 PM 8.6 °F - 0.1 °F 68% 30.33 in 10.0 mi Calm Calm - N/A   Clear
9:55 PM 7.3 °F - -0.4 °F 71% 30.33 in 10.0 mi Calm Calm - N/A   Clear
10:15 PM 5.9 °F - -0.9 °F 73% 30.33 in 10.0 mi Calm Calm - N/A   Clear
10:35 PM 3.0 °F - -2.7 °F 77% 30.33 in 10.0 mi Calm Calm - N/A   Clear
10:55 PM 2.5 °F - -2.7 °F 79% 30.33 in 10.0 mi Calm Calm - N/A   Clear
11:15 PM 3.7 °F - -2.4 °F 76% 30.32 in 10.0 mi Calm Calm - N/A   Clear
11:35 PM 2.7 °F - -2.9 °F 78% 30.32 in 10.0 mi Calm Calm - N/A   Clear
11:55 PM -0.2 °F - -4.5 °F 82% 30.32 in 10.0 mi Calm Calm - N/A   Clear